Regional Weather Roundup
Issued by NWS

Home | Current Version | Previous Version | Text Only | Print | Product List | Glossary Off
Versions: 1 2 3 4 5 6 7 8 9 10 11 12 13 14 15 16 17 18 19 20 21 22 23 24 25 26 27 28 29 30 31 32 33 34 35 36 37 38 39 40 41 42 43 44 45 46 47 48 49 50

000
ASUS43 KMKX 301559
RWRWI

WISCONSIN REGIONAL WEATHER ROUNDUP
NATIONAL WEATHER SERVICE MILWAUKEE/SULLIVAN WI
1100 AM CDT MON MAR 30 2015

NOTE: "FAIR" INDICATES FEW OR NO CLOUDS BELOW 12,000 FEET WITH NO
SIGNIFICANT WEATHER AND/OR OBSTRUCTIONS TO VISIBILITY.

WIZ001-002-006>008-014>016-023>028-301700-
NORTHWEST WISCONSIN

CITY           SKY/WX    TMP DP  RH WIND       PRES   REMARKS
SUPERIOR ARPT  PTSUNNY   45  28  52 S3        29.94S
ASHLAND        MOSUNNY   49  26  41 VRB7      29.93S
HAYWARD        PTSUNNY   45  26  47 CALM      29.94S
SIREN          CLOUDY    44  28  54 S5        29.95S
CUMBERLAND     PTSUNNY   41  30  65 S7        29.95S
RICE LAKE      MOSUNNY   44  29  55 CALM      29.97S
CHETEK         MOSUNNY   45  30  55 CALM      29.96R
LADYSMITH      MOSUNNY   48  26  41 CALM      29.96R
EAU CLAIRE     NOT AVBL
MENOMONIE      CLOUDY    44  30  56 W5        29.97S
NEW RICHMOND   CLOUDY    41  30  64 CALM      29.97R
OSCEOLA        CLOUDY    42  31  64 CALM      29.99S
$$

WIZ003>005-009-010-017-018-301700-
NORTH CENTRAL WISCONSIN

CITY           SKY/WX    TMP DP  RH WIND       PRES   REMARKS
MANITOWISH WTR SUNNY     40  25  54 NW10G17   29.89S WCI  34
ARBOR VITAE    SUNNY     42  26  53 NW13G21   29.89F
WOODRUFF       SUNNY     42  26  53 NW13G21   29.89F
RHINELANDER    SUNNY     45  24  43 NW13G20   29.90S
EAGLE RIVER    SUNNY     42  24  49 NW10G21   29.88S
LAND O LAKES   SUNNY     41  22  45 NW8       29.89S
PHILLIPS       CLOUDY    45  26  46 NW7       29.92S
TOMAHAWK       SUNNY     45  23  41 NW6       29.91F
MEDFORD        SUNNY     45  26  47 NW8       29.93S
MERRILL        SUNNY     47  25  42 NW12      29.91F
$$

WIZ029-030-035-036-043>047-301700-
CENTRAL WISCONSIN

CITY           SKY/WX    TMP DP  RH WIND       PRES   REMARKS
WAUSAU         SUNNY     49  25  39 W9        29.91F
MOSINEE        SUNNY     46  27  46 NW14G21   29.94F
MARSHFIELD     MOSUNNY   49  30  48 NW8       29.95S
STEVENS POINT  SUNNY     46  23  40 NW12      29.94F
WAUPACA        SUNNY     51  25  36 W9        29.95F
WAUTOMA        NOT AVBL
WISC RAPIDS    SUNNY     51  25  36 NW8       29.96F
CAMP DOUGLAS   NOT AVBL
$$

WIZ011>013-019>022-031-037>040-048>050-301700-
NORTHEAST WISCONSIN

CITY           SKY/WX    TMP DP  RH WIND       PRES   REMARKS
ANTIGO         SUNNY     43  25  49 NW14G22   29.90F
SHAWANO        SUNNY     50  26  40 NW14G20   29.93R
OCONTO         SUNNY     47  28  46 NW12      29.91R
STURGEON BAY   SUNNY     45  28  53 NW16      29.93R
GREEN BAY      SUNNY     49  30  48 NW13      29.93S
MANITOWOC      NOT AVBL
APPLETON       MOSUNNY   48  23  37 NW16      29.94F
CLINTONVILLE   SUNNY     50  23  34 N15       29.93S
OSHKOSH        SUNNY     50  31  48 W9        29.95F
$$

WIZ032>034-041-042-053>061-301700-
SOUTHWEST WISCONSIN

CITY           SKY/WX    TMP DP  RH WIND       PRES   REMARKS
LA CROSSE      PTSUNNY   48  28  46 W8        29.98S
SPARTA         SUNNY     50  28  41 SW7       29.98S
VIROQUA        PTSUNNY   46  30  54 W9        29.98F
BOSCOBEL       MOSUNNY   51  29  42 SW8       30.00F
PRAIRIE DU CHI MOSUNNY   47  29  49 CALM      30.01F
PLATTEVILLE    SUNNY     49  32  52 SW9       30.02F
$$

WIZ056-057-062-063-064-067-068-301700-
SOUTH CENTRAL WISCONSIN

CITY           SKY/WX    TMP DP  RH WIND       PRES   REMARKS
REEDSBURG      MOSUNNY   49  31  48 W9        29.97F
BARABOO/DELLS  SUNNY     50  29  44 W9        29.97F
LONE ROCK      NOT AVBL
MINERAL POINT  SUNNY     45  28  53 W9        30.01F
MADISON        PTSUNNY   50  28  42 SW6       29.98F
MIDDLETON      MOSUNNY   55  24  30 W12G17    30.00F
WATERTOWN      PTSUNNY   48  32  53 SW8       30.00F
MONROE         SUNNY     50  32  50 SW12      30.02F
JANESVILLE     PTSUNNY   52  30  43 SW8       30.02F
$$

WIZ051-052-058>065-066-070>072-301700-
SOUTHEAST WISCONSIN

CITY           SKY/WX    TMP DP  RH WIND       PRES   REMARKS
MILWAUKEE      PTSUNNY   52  25  35 NW10G24   30.00F
WAUKESHA       PTSUNNY   48  28  46 W14       30.00F
MILWAUKEE/TIMM MOSUNNY   50  27  40 W13G21    30.00S
RACINE         PTSUNNY   52  29  41 W10G18    30.02F
BURLINGTON     MOSUNNY   49  29  46 W9        30.02S
KENOSHA        MOSUNNY   52  31  44 W14       30.01F
FOND DU LAC    MOSUNNY   49  30  48 W13       29.97S
SHEBOYGAN      SUNNY     49  29  46 NW17G23   29.96S
WEST BEND      MOSUNNY   48  28  46 W12G21    29.98S
JUNEAU         PTSUNNY   47  33  58 SW12      30.00F
$$

LSZ147-162-301700-
LAKE SUPERIOR

STATION/POSITION TIME  TEMP    WIND        PRES    WAVE
                       AIR SEA DIR/SP/G            HT/PER
                 (UTC) (F)     (DEG/KT/KT) (MB)    (FT/S)
DEVILS ISLAND    1500   36     250/ 11/ 14 1013.8R
PORT WING        1540   41     270/  7/ 10 1013.9R
SAXON HARBOR     1500   42     320/  4/ 11 1013.2
$$

LMZ867-665-643>646-301700-
LAKE MICHIGAN

STATION/POSITION TIME  TEMP    WIND        PRES    WAVE
                       AIR SEA DIR/SP/G            HT/PER
                 (UTC) (F)     (DEG/KT/KT) (MB)    (FT/S)
NORTHPORT PIER   1500   35     340/  6/  8 1012.2R
SISTER BAY       1402   43     310/ 12/ 13   N/A
KEWAUNEE LAKESHO 1500   44     290/ 12/ 18 1012.1R
SHEBOYGAN LAKESH 1500   46     280/ 17/ 22 1015.0R
PORT WASHINGTON  1500   49     300/  9/ 21 1015.9R
MILWAUKEE LAKESH 1500   48     290/ 12/ 16   N/A
KENOSHA   LAKESH 1500   47     260/ 12/ 19 1016.9R
$$

TC  - TEMPERATURE IN CELSIUS
VSB - VISIBILITY IN STATUTE MILES
WCI - WIND CHILL INDEX
HX  - HEAT INDEX



USA.gov is the U.S. government's official web portal to all federal, state and local government web resources and services.